Regional Weather Roundup
Issued by NWS Upton, NY

Current Version | Previous Version | Graphics & Text | Print | Product List | Glossary Off
Versions: 1 2 3 4 5 6 7 8 9 10 11 12 13 14 15 16 17 18 19 20 21 22 23 24 25 26 27 28

000
ASUS41 KOKX 241309
RWROKX

REGIONAL WEATHER ROUNDUP
NATIONAL WEATHER SERVICE NEW YORK NY
900 AM EDT MON JUL 24 2017

NOTE: "FAIR" INDICATES FEW OR NO CLOUDS BELOW 12,000 FEET WITH NO
SIGNIFICANT WEATHER AND/OR OBSTRUCTIONS TO VISIBILITY.

NYZ071-072-176-178-NJZ106-104-241400-
NEW YORK CITY METRO AREA

CITY           SKY/WX    TMP DP  RH WIND       PRES   REMARKS
Central Park   LGT RAIN  68  67  96 VRB7      29.78F FOG
Bronx Bot Gard   N/A     64  63  94 S3        29.78F
LaGuardia APRT LGT RAIN  70  68  93 NE10      29.77R
Kennedy INTL   DRIZZLE   73  71  93 E15       29.76S
Breezy Point     N/A     72 N/A N/A E13G18      N/A
Newark/Liberty LGT RAIN  71  68  90 NE9       29.75S
Teterboro      LGT RAIN  68  66  93 E7        29.75S FOG
$$

NYZ177-179-078>081-241400-
LONG ISLAND NEW YORK

CITY           SKY/WX    TMP DP  RH WIND       PRES   REMARKS
Jones Beach      N/A     70 N/A N/A E12G20      N/A
Matinecock PT    N/A     64 N/A N/A E28         N/A
Farmingdale    CLOUDY    70  68  93 E8        29.76S
MacArthur/ISP  LGT RAIN  71  70  96 E13       29.76S
Shirley        CLOUDY    70  70 100 VRB5      29.77S FOG
Mt Sinai Harb    N/A     66 N/A N/A E14G21      N/A
Westhampton    CLOUDY    69  67  93 E10G17    29.77F FOG
East Hampton   LGT RAIN  66  64  95 E12       29.78F
Montauk          N/A     67  65  93 E12G20    29.81F
$$

NYZ052-065-067-241400-
HUDSON VALLEY

CITY           SKY/WX    TMP DP  RH WIND       PRES   REMARKS
White Plains   LGT RAIN  63  61  94 E15G22    29.78S FOG
Larchmont Harb   N/A     64 N/A N/A NE26G32     N/A
Croton O-T Hud   N/A     63 N/A N/A N2          N/A
Newburgh       RAIN      61  61 100 NE12G17   29.84R FOG
Montgomery     HVY RAIN  61  60  97 N18G26    29.84R VSB 1
Poughkeepsie   HVY RAIN  61  59  93 N13       29.83R VSB 3/4
Albany         LGT RAIN  60  54  80 SE7       29.89S
$$

NJZ001-105-106-008-010-013-015-019>022-104-241400-
NEW JERSEY

CITY           SKY/WX    TMP DP  RH WIND       PRES   REMARKS
Newark/Liberty LGT RAIN  71  68  90 NE9       29.75S
Teterboro      LGT RAIN  68  66  93 E7        29.75S FOG
Caldwell       HVY RAIN  67  32  27 E9G20     29.76F
Somerville     HVY RAIN  70  69  97 CALM      29.72F VSB 1/2
Linden         DRIZZLE   71  68  90 CALM      29.74F
Perth Amboy      N/A     72 N/A N/A NE9         N/A
Sussex         RAIN      63  62  97 N12G22    29.84R FOG
Andover          N/A     64  62  93 N8        29.82R
Trenton        LGT RAIN  72  71  97 S7        29.74S
Millville      LGT RAIN  76  76 100 SW3       29.75S
Atlantic City  MOSUNNY   77  74  90 S7        29.75S
Wrightstown    PTSUNNY   73  72  95 SW3       29.74S
Toms River     CLOUDY    75  73  93 S5        29.75F
Belmar         CLOUDY    76  72  87 S7        29.76R
$$

PAZ047>061-062-071-241400-
EASTERN PENNSYLVANIA

CITY           SKY/WX    TMP DP  RH WIND       PRES   REMARKS
Philadelphia   CLOUDY    74  70  87 W9        29.76S
Allentown      CLOUDY    70  65  84 NE12      29.75F
Scranton       CLOUDY    69  66  90 NE6       29.80R
$$

CTZ002-004>006-009-010-012-RIZ004-006-007-MAZ004-011-015-241400-
SOUTHERN NEW ENGLAND
 IN CT

CITY           SKY/WX    TMP DP  RH WIND       PRES   REMARKS
Bradley INTL   CLOUDY    60  58  92 NE10      29.90R
Hartford       RAIN      61  59  93 N9        29.87F FOG
Danbury        LGT RAIN  60  59  96 NE10      29.83S FOG
Wtrbury/Oxford LGT RAIN  55  52  88 E13G20    29.85F FOG
Bridgeport     LGT RAIN  63  59  87 NE16G25   29.80F
Meriden        HVY RAIN  58  56  93 NE8       29.85S FOG
New Haven      CLOUDY    61  58  90 NE12      29.83R FOG
Chester        DRIZZLE   59  57  94 NE9       29.84F
Groton         CLOUDY    60  56  86 NE10      29.84R
Wilimantic     LGT RAIN  62  58  86 NE7       29.89S

 IN RI

CITY           SKY/WX    TMP DP  RH WIND       PRES   REMARKS
Providence     LGT RAIN  60  57  89 NE10      29.90S
Block Island   CLOUDY    64  62  93 E17G24    29.83F
Westerly       LGT RAIN  62  57  83 NE13G22   29.85S
 IN MA

CITY           SKY/WX    TMP DP  RH WIND       PRES   REMARKS
Boston         LGT RAIN  62  58  86 E15       29.95R FOG
Worcester      LGT RAIN  57  54  89 NE13G22   29.93F
Westfield      LGT RAIN  58  57  97 NE9       29.91R
Provincetown   NOT AVBL
Nantucket      CLOUDY    61  55  81 E14G22    29.90F
$$

ANZ330-335-338-340-345-350-353-355-241400-
COASTAL MARINE OBSERVATIONS


STATION/POSITION TIME  SKY/WX   TEMP    WIND        PRES    VSBY  WAVE
                                AIR SEA DIR/SP/G                  HT/PER
                 (UTC)          (F)     (DEG/KT/KT) (MB)    (MI)  (FT/S)
NY HARB ENTRANCE 1150            74 73  100/ 14/ 17 1006.3          6/ 6
20 S FIRE ISLAND 1250            75 76  130/ 12/ 14 1006.3          8/ 6
GREAT SOUTH BAY  1215            72 80   80/ 17/ 23   N/A
23 SSW MONTAUK P 1150            70 73              1007.7          7/ 6
15 E BARNEGAT LI 1230               76                N/A           5/ 6
HUDSON CANYON    1150            75 77  200/ 10/ 12 1006.7          4/ 8
KINGS POINT      1230            68 72  110/  4/  7 1007.6
EXECUTION ROCKS  1200            69      90/ 19/ 27   N/A
CENTRAL LI SOUND NOT AVBL
EASTERN LI SOUND NOT AVBL
ROBBINS REEF     1230                    10/  7/ 13 1008.1
$$


>>>>>>>>>>>>>>>>>>>>>>>>>>>> KEY <<<<<<<<<<<<<<<<<<<<<<<<<<<
>                                                          <
>     SKY/WX - Sky Condition/Present Weather               <
>     TMP    - Temperature in Fahrenheit                   <
>     DP     - Dew Point in Fahrenheit                     <
>     RH     - Relative Humidity in Percent                <
>     WIND   - Direction (from) and Speed in MPH           <
>     PRES   - Mean Sea Level Pressure (inches of Hg)      <
>     WCI    - Wind Chill Index                            <
>     VSB    - VISIBILITY IN MILES                         <
>     HX     - HEAT INDEX                                  <
>     TC     - TEMPERATURE IN CELSIUS                      <
>     VRB    - VARIABLE WIND DIRECTION                     <
>                                                          <
>>>>>>>>>>>>>>>>>>>>>>>>>>>> KEY <<<<<<<<<<<<<<<<<<<<<<<<<<<




USA.gov is the U.S. government's official web portal to all federal, state and local government web resources and services.